[[{"header":{"parameterUnit":"m.s-1","parameterCategory":1,"la1":30.2991,"la2":30.254,"lo1":-89.0895,"lo2":-89.0444,"dx":0.0017,"dy":0.0017,"nx":28,"ny":28,"refTime":"2022-12-16T15:00:00:Z","depth":0,"parameterNumber":2,"parameterNumberName":"U-component_of_WINDS"},"data":[0,0,0,0,0,0,0,0,0,0,0,0,0,0,0,0,0,0,0,0,0,0,0,0,0,0,0,0,0,0,0,0,0,0,0,0,0,0,0,0,0,0,0,0,0,0,0,0,0,0,0,0,0,0,0,0,0,0,-1.3423,-1.3423,0,-1.343,-1.3431,-1.3431,-1.3386,-1.3385,-1.3383,-1.3382,-1.3391,-1.3392,-1.3394,0,0,0,0,0,0,0,0,0,0,0,0,0,-1.337,-1.3371,-1.3423,-1.3423,-1.3423,-1.343,-1.3431,-1.3431,-1.3386,-1.3385,-1.3383,-1.3382,-1.3391,-1.3392,-1.3394,0,0,0,0,0,0,0,0,0,0,0,0,0,-1.3387,-1.3372,-1.3423,-1.3402,-1.34,-1.343,-1.3431,-1.3431,-1.3386,-1.3385,-1.3383,-1.3381,-1.339,-1.3392,-1.3394,-1.3446,0,0,-1.3401,-1.3402,0,0,0,0,0,0,0,0,-1.3386,-1.3389,-1.3405,-1.3403,-1.3401,-1.3405,-1.3415,-1.3436,-1.3387,-1.3392,-1.3382,-1.338,-1.3397,-1.3399,-1.3404,-1.3446,-1.3447,-1.3401,-1.3402,-1.3403,-1.3404,0,0,0,0,0,0,0,-1.3385,-1.3388,-1.3426,-1.3405,-1.3403,-1.3392,-1.3392,-1.3419,-1.3405,-1.3391,-1.3388,-1.3389,-1.3396,-1.3403,-1.3404,-1.3447,-1.3401,-1.3403,-1.3404,-1.3405,-1.3531,-1.3533,0,0,0,0,0,0,-1.3386,-1.3388,-1.3426,-1.3426,-1.3389,-1.3394,-1.3395,-1.3406,-1.3405,-1.3403,-1.3391,-1.3387,-1.34,-1.3402,-1.3405,-1.3465,-1.3403,-1.3405,-1.3406,-1.3529,-1.3531,-1.3533,0,0,0,0,0,0,-1.3386,-1.339,-1.3425,-1.3406,-1.341,-1.3397,-1.341,-1.3407,-1.3413,-1.3405,-1.3402,-1.34,-1.3398,-1.3402,-1.3436,-1.3464,-1.3406,-1.3408,-1.3526,-1.3529,-1.3532,-1.3586,0,0,0,0,0,0,-1.3384,-1.339,-1.341,-1.3407,-1.3411,-1.3457,-1.3412,-1.3409,-1.3417,-1.3412,-1.3412,-1.3411,-1.3397,-1.3433,-1.3438,-1.3466,-1.341,-1.3524,-1.3528,-1.3531,-1.3582,-1.359,-1.3598,0,0,0,0,0,-1.3382,-1.3425,-1.3411,-1.3416,-1.3435,-1.3458,-1.3461,-1.3444,-1.342,-1.3439,-1.3433,-1.3411,-1.346,-1.3437,-1.3442,-1.3472,-1.3522,-1.3527,-1.3531,-1.3578,-1.3589,-1.3598,0,0,0,0,0,0,-1.3432,-1.3424,-1.3409,-1.3451,-1.3456,-1.3451,-1.3475,-1.3456,-1.3468,-1.3463,-1.3442,-1.3442,-1.348,-1.3479,-1.3453,-1.3521,-1.3487,-1.3493,-1.3521,-1.3531,-1.3539,-1.3539,-1.3412,0,0,0,0,0,-1.3448,-1.3467,-1.3459,-1.3498,-1.3501,-1.3488,-1.3497,-1.3484,-1.3487,-1.3489,-1.3486,-1.3491,-1.3507,-1.3519,-1.3534,-1.3581,-1.358,-1.3604,-1.3612,-1.3619,-1.3624,-1.3649,-1.3659,-1.3549,-1.3549,-1.3548,0,0,-1.3481,-1.3479,-1.3493,-1.3508,-1.351,-1.353,-1.3489,-1.3513,-1.3528,-1.3493,-1.3525,-1.3523,-1.3527,-1.3568,-1.3585,-1.3568,-1.3655,-1.3625,-1.363,-1.3632,-1.3655,-1.3665,-1.3675,-1.3552,-1.3551,-1.3551,0,0,-1.3552,-1.3553,-1.3584,-1.3587,-1.359,-1.3581,-1.3588,-1.3586,-1.3583,-1.3615,-1.3588,-1.3606,-1.3635,-1.3639,-1.3645,-1.3716,-1.3696,-1.3721,-1.3765,-1.3789,-1.3798,-1.3806,-1.3831,-1.3841,-1.3727,-1.3727,-1.3727,0,-1.3593,-1.3623,-1.3603,-1.3629,-1.3636,-1.3604,-1.3636,-1.364,-1.3648,-1.3654,-1.3634,-1.3669,-1.367,-1.3711,-1.3728,-1.3734,-1.3742,-1.3722,-1.3798,-1.3806,-1.3813,-1.3837,-1.3847,-1.373,-1.373,-1.373,-1.3729,0,-1.3673,-1.3695,-1.372,-1.3728,-1.3738,-1.3767,-1.3751,-1.3764,-1.3749,-1.3742,-1.3774,-1.3774,-1.3788,-1.3796,-1.3782,-1.3835,-1.3824,-1.3802,-1.3767,-1.3827,-1.3849,-1.3858,-1.3735,-1.3734,-1.3733,-1.3732,0,0,-1.3777,-1.3773,-1.3783,-1.3786,-1.3786,-1.3802,-1.3829,-1.3842,-1.3854,-1.386,-1.3882,-1.3907,-1.3886,-1.3892,-1.3878,-1.39,-1.3956,-1.3874,-1.3874,-1.389,-1.4015,-1.4032,-1.4043,-1.3942,-1.3944,-1.3945,-1.4014,0,-1.3847,-1.3893,-1.3875,-1.3923,-1.3942,-1.3911,-1.3934,-1.3937,-1.3931,-1.3947,-1.394,-1.3958,-1.3928,-1.3932,-1.3951,-1.3945,-1.3981,-1.394,-1.3963,-1.3964,-1.3964,-1.4055,-1.4074,-1.4139,-1.4023,-1.4025,-1.4026,0,-1.3935,-1.3944,-1.3993,-1.399,-1.3997,-1.4018,-1.4029,-1.4044,-1.4046,-1.404,-1.4047,-1.4028,-1.4054,-1.4019,-1.4055,-1.4027,-1.4036,-1.4034,-1.4036,-1.4038,-1.3999,-1.406,-1.4159,-1.417,-1.4039,-1.4038,-1.4037,0,-1.4006,-1.4031,-1.4063,-1.4066,-1.4063,-1.4079,-1.4078,-1.4079,-1.4088,-1.4096,-1.4102,-1.4114,-1.4121,-1.4131,-1.4116,-1.4091,-1.4154,-1.4117,-1.415,-1.415,-1.4165,-1.4165,-1.4268,-1.417,-1.417,-1.4169,-1.4169,0,-1.4086,-1.4118,-1.4095,-1.4115,-1.4149,-1.4128,-1.4163,-1.4159,-1.4159,-1.4178,-1.4152,-1.417,-1.4149,-1.4165,-1.4153,-1.4185,-1.4188,-1.4184,-1.4181,-1.4187,-1.4188,-1.4193,-1.4188,-1.4172,-1.4171,-1.4171,-1.417,0,-1.4172,-1.4158,-1.4192,-1.4185,-1.4184,-1.421,-1.4204,-1.4223,-1.4214,-1.4238,-1.4242,-1.4229,-1.4247,-1.4233,-1.425,-1.4242,-1.4284,-1.4274,-1.4283,-1.4281,-1.4314,-1.4312,-1.4425,-1.4439,-1.4331,-1.4332,-1.4333,0,-1.4225,-1.4248,-1.4244,-1.4254,-1.4255,-1.4272,-1.4281,-1.4261,-1.4271,-1.4275,-1.4293,-1.4308,-1.4319,-1.4349,-1.4341,-1.4354,-1.4344,-1.4383,-1.4346,-1.4352,-1.4345,-1.4345,-1.4347,-1.4391,-1.4392,-1.4393,-1.4394,0,-1.4319,-1.4311,-1.4324,-1.4335,-1.4346,-1.4353,-1.4359,-1.4369,-1.4348,-1.4361,-1.4378,-1.4387,-1.4404,-1.442,-1.443,-1.4429,-1.4409,-1.4406,-1.4414,-1.4421,-1.4425,-1.4424,-1.4304,-1.4403,-1.4403,-1.4402,-1.4401,-1.4401,-1.439,-1.441,-1.4409,-1.4425,-1.4427,-1.4432,-1.4449,-1.4442,-1.4456,-1.4468,-1.4455,-1.4476,-1.4478,-1.4489,-1.4491,-1.4507,-1.4491,-1.4503,-1.4506,-1.451,-1.4515,-1.4422,-1.4509,-1.4509,-1.4508,-1.4508,-1.4508,0,-1.4484,-1.4482,-1.4496,-1.4505,-1.4517,-1.4495,-1.45,-1.4511,-1.453,-1.4533,-1.4544,-1.4564,-1.4578,-1.4571,-1.4584,-1.4598,-1.4589,-1.4603,-1.4602,-1.4602,-1.4528,-1.452,-1.461,-1.461,-1.461,-1.461,-1.461,-1.461,-1.4534,-1.4566,-1.4557,-1.4589,-1.4586,-1.4606,-1.4611,-1.4616,-1.4618,-1.4641,-1.4653,-1.4648,-1.4646,-1.4658,-1.4671,-1.4668,-1.4675,-1.4691,-1.4686,-1.4617,-1.4607,-1.4598,-1.459,-1.4693,-1.4693,-1.4758,-1.4759,-1.4759]},{"header":{"parameterUnit":"m.s-1","parameterCategory":1,"la1":30.2991,"la2":30.254,"lo1":-89.0895,"lo2":-89.0444,"dx":0.0017,"dy":0.0017,"nx":28,"ny":28,"refTime":"2022-12-16T15:00:00:Z","depth":0,"parameterNumber":3,"parameterNumberName":"V-component_of_WINDS"},"data":[0,0,0,0,0,0,0,0,0,0,0,0,0,0,0,0,0,0,0,0,0,0,0,0,0,0,0,0,0,0,0,0,0,0,0,0,0,0,0,0,0,0,0,0,0,0,0,0,0,0,0,0,0,0,0,0,0,0,1.3246,1.3246,0,1.3192,1.3192,1.3191,1.3173,1.3173,1.3174,1.3174,1.3114,1.3112,1.3111,0,0,0,0,0,0,0,0,0,0,0,0,0,1.3331,1.333,1.3247,1.3246,1.3245,1.3192,1.3192,1.3191,1.3173,1.3173,1.3174,1.3174,1.3115,1.3113,1.311,0,0,0,0,0,0,0,0,0,0,0,0,0,1.3287,1.3329,1.3247,1.323,1.3228,1.3192,1.3192,1.3191,1.3173,1.3173,1.3174,1.3174,1.3116,1.3113,1.311,1.3086,0,0,1.3102,1.3101,0,0,0,0,0,0,0,0,1.329,1.3284,1.3233,1.3231,1.3229,1.319,1.32,1.3155,1.3173,1.3194,1.3174,1.3174,1.3139,1.3134,1.3123,1.3083,1.3081,1.3102,1.31,1.3099,1.3098,0,0,0,0,0,0,0,1.3293,1.3287,1.3225,1.3232,1.323,1.3224,1.3218,1.3191,1.3165,1.3192,1.3191,1.3185,1.3138,1.3126,1.3122,1.308,1.3102,1.3099,1.3098,1.3097,1.3017,1.3016,0,0,0,0,0,0,1.3299,1.3289,1.3227,1.3223,1.3261,1.3222,1.3216,1.3202,1.3165,1.316,1.3184,1.3184,1.313,1.3125,1.3119,1.3088,1.3099,1.3096,1.3095,1.3017,1.3017,1.3016,0,0,0,0,0,0,1.3301,1.3294,1.3229,1.3256,1.3247,1.3221,1.3205,1.3201,1.3189,1.3159,1.3154,1.3177,1.313,1.3123,1.3095,1.3086,1.3095,1.3093,1.3018,1.3017,1.3016,1.3026,0,0,0,0,0,0,1.3304,1.3295,1.3286,1.3256,1.3246,1.3206,1.3205,1.3199,1.3185,1.3184,1.3151,1.3146,1.313,1.3099,1.3092,1.3082,1.309,1.3018,1.3017,1.3017,1.3026,1.3026,1.3025,0,0,0,0,0,1.3307,1.329,1.3286,1.3278,1.3235,1.3206,1.32,1.3183,1.3184,1.3174,1.3156,1.3147,1.3088,1.3096,1.3088,1.3077,1.3019,1.3018,1.3017,1.3026,1.3026,1.3025,0,0,0,0,0,0,1.3319,1.3286,1.3281,1.3254,1.3233,1.3203,1.319,1.3182,1.3159,1.3159,1.3138,1.3131,1.3104,1.3088,1.3097,1.3052,1.3053,1.305,1.3063,1.3062,1.3062,1.3065,1.3088,0,0,0,0,0,1.3318,1.3299,1.3271,1.325,1.324,1.3217,1.3203,1.3192,1.3169,1.316,1.3139,1.3115,1.3091,1.3076,1.3053,1.3024,1.3016,1.3013,1.3013,1.3012,1.301,1.2993,1.2991,1.3013,1.3013,1.3013,0,0,1.3317,1.3297,1.3285,1.3251,1.3234,1.3213,1.3209,1.3187,1.3171,1.3156,1.3128,1.3112,1.3084,1.3056,1.3042,1.3041,1.3002,1.3011,1.3011,1.3008,1.2992,1.299,1.2988,1.3012,1.3012,1.3012,0,0,1.3304,1.3287,1.3267,1.325,1.3224,1.3209,1.3205,1.3176,1.3165,1.3137,1.3125,1.3105,1.3064,1.3045,1.303,1.3011,1.3002,1.3003,1.3,1.2984,1.2982,1.298,1.2972,1.297,1.3001,1.3001,1.3001,0,1.3305,1.3274,1.3258,1.3237,1.3222,1.3209,1.3188,1.3172,1.3139,1.3128,1.3129,1.3078,1.3059,1.3025,1.3021,1.3009,1.3002,1.3006,1.2984,1.2982,1.298,1.2972,1.297,1.3002,1.3002,1.3001,1.3001,0,1.3276,1.3255,1.3242,1.3212,1.3196,1.3175,1.3155,1.314,1.3131,1.3115,1.3086,1.3063,1.3035,1.3026,1.3016,1.2991,1.2991,1.2988,1.2989,1.2979,1.2971,1.2968,1.3002,1.3002,1.3002,1.3002,0,0,1.3267,1.323,1.3225,1.3211,1.3182,1.3164,1.3143,1.3116,1.3104,1.3082,1.3062,1.3029,1.3026,1.3009,1.2997,1.2983,1.2968,1.2981,1.298,1.2979,1.2938,1.294,1.2937,1.2962,1.2962,1.2961,1.294,0,1.325,1.3212,1.3197,1.3165,1.3145,1.3133,1.3114,1.3093,1.3078,1.3058,1.3041,1.3018,1.3016,1.3006,1.2992,1.2973,1.2959,1.2974,1.2943,1.2942,1.2949,1.2933,1.2934,1.2915,1.2937,1.2936,1.2936,0,1.3223,1.3202,1.3169,1.3143,1.3133,1.3117,1.3091,1.3072,1.3049,1.3039,1.302,1.3009,1.2985,1.2988,1.2954,1.2964,1.2951,1.2939,1.2938,1.2934,1.2937,1.2927,1.2909,1.2906,1.2931,1.2932,1.2932,0,1.3219,1.3183,1.3158,1.3147,1.3115,1.3104,1.309,1.3066,1.3051,1.3029,1.3019,1.2993,1.2979,1.2959,1.2941,1.2945,1.2908,1.2909,1.2898,1.2898,1.2889,1.289,1.2868,1.2883,1.2883,1.2883,1.2883,0,1.32,1.318,1.3156,1.3141,1.3118,1.3101,1.3078,1.3063,1.3042,1.3023,1.3011,1.2993,1.2971,1.2949,1.2935,1.2908,1.2902,1.2893,1.2889,1.2893,1.2894,1.2883,1.2883,1.2882,1.2882,1.2882,1.2882,0,1.3191,1.3175,1.3147,1.312,1.3112,1.3096,1.3072,1.3057,1.3042,1.3018,1.3011,1.2987,1.2962,1.2942,1.2909,1.2899,1.287,1.2867,1.2879,1.2877,1.2866,1.2867,1.2835,1.283,1.2849,1.2849,1.2849,0,1.318,1.3164,1.3136,1.3123,1.3109,1.3088,1.3073,1.3056,1.3041,1.3013,1.3,1.2974,1.2952,1.2912,1.2891,1.2865,1.286,1.2851,1.2856,1.286,1.2858,1.2859,1.2857,1.2849,1.2849,1.2849,1.2849,0,1.3161,1.3153,1.3133,1.3109,1.3092,1.3072,1.3052,1.3042,1.3021,1.3004,1.2979,1.2962,1.2929,1.2903,1.2875,1.2859,1.285,1.2848,1.2844,1.2847,1.2855,1.285,1.2876,1.2848,1.2849,1.2849,1.2849,1.2849,1.3149,1.3135,1.3113,1.309,1.3074,1.3055,1.3039,1.3023,1.3002,1.2974,1.2965,1.2939,1.2915,1.2877,1.2861,1.2839,1.2839,1.2833,1.2831,1.283,1.283,1.2859,1.2834,1.2834,1.2834,1.2834,1.2834,0,1.3128,1.3114,1.3094,1.3067,1.3049,1.3044,1.3022,1.3007,1.2984,1.2963,1.2942,1.2913,1.2888,1.2865,1.2839,1.2826,1.2821,1.2819,1.2819,1.2816,1.2832,1.2838,1.2824,1.2824,1.2824,1.2824,1.2824,1.2824,1.3116,1.3091,1.3081,1.3047,1.3033,1.3007,1.2995,1.2978,1.2961,1.2929,1.2909,1.2895,1.2873,1.2845,1.2822,1.2816,1.2806,1.2805,1.2798,1.2813,1.2815,1.2816,1.2821,1.2804,1.2804,1.2783,1.2783,1.2783]}]]